Location: Bakov nad Jizerou
(50.4784°N, 14.9394°E)
Time: 14:17:01
(UTC+00:00)

Cosmos 1536 Rocket - Pass Details

Date: 23 October 2021
Orbit: 605 x 632 km, 82.5° (Epoch: 05 December)

Event Time Altitude Azimuth Distance (km) Brightness Sun altitude
Rises 04:12:28 0° 167° (SSE) 2,892 7.2 -13.9°
Reaches altitude 10° 04:14:48 10° 159° (SSE) 1,986 6.4 -13.5°
Maximum altitude 04:18:52 38° 92° (E) 954 5.2 -12.9°
Drops below altitude 10° 04:22:55 10° 24° (NNE) 1,985 6.4 -12.3°
Sets 04:25:15 0° 17° (NNE) 2,891 7.2 -11.9°
